Location: Central Falls
(41.8900°N, 71.3929°W)
Time: 20:40:22
(UTC+00:00)

Courier 1B Rocket - Pass Details

Date: 06 December 2023
Orbit: 920 x 1202 km, 28.2° (Epoch: 04 March)

Event Time Altitude Azimuth Distance (km) Brightness Sun altitude
Rises 16:41:16 0° 231° (SW) 3,760 8.6 25.6°
Reaches altitude 10° 16:44:43 10° 216° (SW) 2,758 8.4 25.6°
Maximum altitude 16:49:26 21° 170° (S) 2,033 8.8 25.5°
Drops below altitude 10° 16:53:59 10° 124° (SE) 2,648 7.8 25.5°
Sets 16:57:13 0° 108° (ESE) 3,568 8.1 25.4°
